Find Tongxin Jishu Shiyan 22

NORAD ID: 66990 Int'l Des: 2025-290 Owner: ZZB/SAST Country: CN operational
HEOCIRCULARGSO

現在のビュー

3D地球を読み込み中...

Tongxin Jishu Shiyan 22について

説明を読み込み中...

次回通過

Passes for default location (London). Set your location on the main map for personalized predictions.

高度履歴

Loading altitude history...

軌道要素

1 66990U 25290A 26145.93413299 -.00000009 00000-0 00000-0 0 9996
2 66990 1.5829 286.2970 0001875 348.6344 11.4302 1.00274823 1801
Epoch: May 25, 2026 • Age: 22 hours

現在のステータス

高度 35777.8 km
速度 3.08 km/s
衛星直下点 -0.79°S, 66.57°E
打ち上げ日 Dec 9, 2025
運用期間 0.4 years
タイプ other

技術仕様

分類 Payload
質量 5000.00 kg
乾燥質量 6000.00 kg
総質量 5000.00 kg
長さ 5.00 m
直径 4.00 m
スパン 30.00 m
形状 Box+ 2 pan+dish
製造者 SAST
バスタイプ TJSxx
フェーズステータス In Orbit
所有者/国 ZZB/SAST/CN

Most Searched